Location: Cerro Villa Heights
(33.8267°N, 117.8042°W)
Time: 23:54:41
(UTC+00:00)

Cosmos 2150 Rocket - Pass Details

Date: 05 August 2024
Orbit: 747 x 805 km, 74.0° (Epoch: 08 September)

Event Time Altitude Azimuth Distance (km) Brightness Sun altitude
Rises 12:20:54 0° 339° (NNW) 3,276 7.4 -9.4°
Reaches altitude 10° 12:23:20 10° 336° (NNW) 2,336 6.6 -9.0°
Maximum altitude 12:28:34 63° 256° (WSW) 858 4.0 -8.0°
Drops below altitude 10° 12:33:40 10° 176° (S) 2,284 6.2 -7.1°
Sets 12:36:02 0° 173° (S) 3,198 7.0 -6.6°
